Temperature
16 16 16 16 16 16 16 16 16 15 15 14 14 13 13 13 13 13 13 13 13 13 13 13 13 13 13 13 13 12 12 12 12 12 12 12 12 12
17 17 16 16 16 16 16 15 15 16 15 14 13 13 13 13 13 12 13 12 12 12 12 12 12 12 12 12 12 12 12 12 12 12 12 12 11 11
16 16 16 16 16 16 16 15 15 15 15 14 13 13 13 12 12 12 12 12 12 12 12 12 12 12 12 12 12 11 11 11 11 11 11 11 11 11
16 16 16 16 16 15 15 15 15 15 14 14 13 13 12 12 12 12 12 12 11 12 12 12 12 12 11 11 11 11 11 11 11 11 11 10 10 10
16 16 16 16 15 15 15 15 15 14 14 14 13 13 12 12 12 12 11 11 11 11 11 11 11 11 11 11 11 11 10 10 10 10 10 10 10 10
16 16 16 15 15 15 15 15 14 14 14 14 13 13 12 12 12 12 11 11 11 11 11 11 11 11 11 11 10 10 10 10 10 10 10 9 9 9
16 16 15 15 15 15 15 14 14 14 14 14 13 13 12 12 12 11 11 11 11 10 10 10 10 10 10 10 10 10 10 10 9 9 9 9 9 9
15 15 15 15 15 15 15 15 14 14 14 14 13 13 12 12 11 11 11 11 11 10 10 10 10 10 10 9 10 9 9 9 9 9 9 9 9 8
15 15 15 15 15 15 15 14 14 14 14 13 13 12 12 12 11 11 11 11 11 10 10 10 10 10 9 9 9 9 9 9 9 9 8 8 8 8
15 15 14 14 14 14 14 14 14 13 13 13 12 12 12 12 11 11 11 10 10 10 10 10 10 9 9 9 9 9 9 9 8 8 8 8 8 8
15 14 14 14 14 14 14 13 13 13 13 13 12 12 12 12 11 11 10 11 11 10 10 10 10 10 9 9 9 9 9 9 8 8 8 8 8 7
15 14 14 14 14 14 13 13 13 12 12 12 12 12 11 11 11 11 10 11 11 11 10 10 10 10 9 9 9 9 9 8 8 8 8 8 8 7
14 14 14 14 14 13 13 13 13 12 12 12 12 11 11 11 11 11 10 10 10 10 10 10 10 9 10 9 9 9 8 8 8 8 8 8 7 7
14 14 14 14 14 13 13 13 13 12 12 12 11 11 11 11 11 10 10 10 10 10 9 9 9 9 9 9 9 9 8 8 8 8 8 7 7 7
14 14 13 13 13 13 13 12 12 12 11 11 11 11 11 10 10 10 10 10 10 9 9 9 9 9 9 9 9 9 9 8 8 8 8 7 7 7
13 13 13 13 13 12 12 12 12 11 11 11 11 10 10 10 10 10 10 10 10 9 9 9 9 8 9 9 9 9 9 8 8 8 8 7 7 7
13 13 12 12 12 12 11 11 11 11 11 11 11 10 10 10 10 10 9 10 10 9 9 9 9 8 8 8 8 8 8 8 8 8 7 8 8 7
13 12 12 12 12 12 11 11 11 11 11 11 10 10 10 10 10 10 9 9 9 9 9 9 9 8 8 8 8 8 8 8 8 8 7 7 7 7
12 12 12 12 12 11 11 11 11 11 11 11 10 10 10 10 10 9 9 9 9 9 9 9 9 9 9 9 8 8 8 8 8 8 7 7 7 7
12 12 11 11 11 11 11 11 11 11 11 10 10 10 10 10 10 9 9 9 9 9 9 8 8 8 8 9 9 8 8 7 7 7 7 7 7 7
12 12 11 11 11 11 11 11 11 10 10 10 10 10 10 9 9 9 9 9 9 9 9 8 8 8 8 8 8 8 8 7 7 7 7 7 7 7
12 11 11 11 11 11 11 11 10 10 10 10 10 9 9 9 9 9 9 9 8 8 9 8 8 8 8 8 8 8 8 7 7 7 7 6 6 6
11 11 11 11 11 11 10 10 10 10 10 10 9 9 9 9 9 9 9 8 8 8 8 8 8 8 8 8 8 8 8 7 7 7 7 6 6 6
Wind_Speed
3 3 2 2 2 2 2 3 2 2 1 2 2 3 3 5 5 6 8 10 9 8 7 7 7 6 6 7 7 7 8 8 7 6 6 5 5 4
2 1 2 2 1 2 2 2 2 2 1 3 2 3 4 5 6 7 8 10 10 9 9 8 8 8 8 8 9 9 8 8 8 7 6 6 6 5
1 1 1 1 1 1 2 2 2 2 3 3 3 4 4 4 5 6 6 6 8 10 9 9 9 9 9 9 9 9 9 9 8 8 7 7 6 6
2 2 2 2 2 1 1 2 2 2 4 5 4 4 4 4 4 4 4 5 7 10 9 9 10 10 10 10 9 9 8 8 8 8 8 8 8 7
2 3 2 3 2 2 2 3 3 3 3 5 5 4 4 4 4 3 4 4 5 8 9 9 9 9 9 9 8 8 8 8 7 7 8 8 8 8
2 2 3 3 3 3 3 4 4 4 5 5 5 5 4 4 3 3 3 3 2 4 5 6 7 7 7 6 6 6 7 7 7 7 7 7 7 7
2 2 2 3 3 2 2 4 5 4 4 4 5 4 4 3 3 2 3 3 3 2 2 3 4 4 4 5 5 5 5 6 6 6 6 6 6 6
3 3 4 5 6 5 5 4 3 4 4 4 4 4 4 3 2 2 2 2 2 2 1 2 2 2 3 3 5 5 5 5 5 4 4 4 4 4
4 4 3 4 6 6 7 6 4 3 1 2 3 3 4 4 3 3 2 2 0 2 2 2 2 2 2 5 7 6 5 5 5 4 4 4 4 3
4 5 4 4 5 5 6 6 5 4 3 2 1 2 3 3 4 3 3 3 2 3 3 2 2 2 2 4 8 7 6 6 6 5 5 5 5 5
4 4 5 5 6 6 6 6 5 5 5 5 4 4 4 4 4 3 3 3 3 3 4 3 2 2 3 3 7 10 9 8 8 8 7 6 6 7
5 5 4 5 7 7 6 6 6 5 5 5 5 5 5 6 6 4 4 4 3 2 3 3 2 2 3 3 3 5 7 9 10 10 9 8 7 7
5 5 5 8 8 7 5 5 5 4 5 4 4 4 5 4 5 4 3 3 3 2 2 3 3 3 3 2 2 3 4 5 6 8 10 11 10 8
4 4 5 10 9 7 6 4 5 5 4 4 4 4 4 4 3 4 4 3 3 3 2 3 3 3 4 4 3 3 3 4 4 4 5 9 11 12
3 4 7 10 10 7 7 6 6 5 4 4 4 3 3 3 4 4 4 4 4 4 3 4 5 4 5 4 3 3 3 3 4 3 4 4 5 6
5 7 9 8 6 5 7 7 5 4 4 4 4 4 4 4 4 4 4 4 4 3 3 4 5 5 4 4 4 4 3 3 3 4 4 5 5 6
6 6 5 6 6 6 6 5 5 5 5 4 4 4 4 4 4 4 3 4 4 4 3 4 5 5 5 5 5 4 4 4 4 3 4 5 5 6
5 6 6 6 6 7 6 6 6 5 5 5 4 5 5 4 4 4 4 4 4 4 3 3 4 4 5 5 4 5 5 5 4 4 6 6 6 5
6 6 7 7 6 6 6 6 6 6 5 6 5 5 5 5 5 5 5 4 4 4 4 3 4 5 6 5 5 6 5 5 5 5 5 6 6 5
7 7 7 6 6 6 6 6 6 6 6 6 6 5 6 6 6 6 5 5 5 5 5 4 4 4 5 6 5 4 8 6 6 6 6 6 5 3
7 7 7 7 6 6 6 6 6 6 6 6 6 6 6 6 6 6 5 5 5 5 6 5 4 5 6 6 6 5 4 6 5 5 6 6 6 6
7 7 7 7 6 6 6 6 6 6 6 6 6 6 6 6 6 6 5 5 6 6 6 5 4 5 6 7 7 6 5 4 7 10 9 8 6 7
6 6 7 7 6 6 6 7 7 6 6 5 6 6 6 6 5 5 6 6 6 7 6 6 5 5 6 6 7 6 6 6 5 5 6 10 12 11
Wind_Direction
226 226 245 236 235 226 213 219 221 206 167 129 111 83 77 79 73 87 87 82 78 76 75 76 77 84 92 94 97 99 100 100 99 98 98 96 95 101
233 233 240 222 214 210 206 213 226 216 166 118 119 109 86 93 88 90 94 98 85 82 81 80 80 79 83 90 94 97 100 100 99 98 95 92 85 86
202 192 201 240 220 202 187 182 178 160 146 128 118 116 112 102 98 97 103 103 94 88 87 85 84 83 83 84 87 89 91 94 96 98 99 97 94 94
184 172 177 176 180 196 179 163 150 151 149 141 137 137 130 126 118 117 110 103 101 99 96 91 89 87 86 86 89 92 91 91 94 98 98 96 96 96
182 176 173 165 167 152 162 151 148 144 143 149 145 141 141 141 138 132 113 107 111 117 113 105 99 96 92 92 93 97 99 97 96 96 95 94 93 93
181 176 168 167 164 159 155 156 150 149 149 154 149 150 148 152 163 149 141 135 117 114 107 112 117 114 106 102 103 106 106 103 101 100 101 100 98 96
156 157 148 124 108 133 156 152 156 163 165 162 158 155 151 164 177 177 154 145 132 129 130 128 136 138 132 135 130 125 120 118 114 110 108 109 107 104
165 159 153 148 136 125 105 109 131 168 173 173 169 166 164 174 177 186 167 177 167 158 184 155 158 151 136 123 133 146 152 148 143 133 127 125 124 120
181 181 178 146 150 147 138 141 130 106 143 193 173 176 169 169 184 196 186 221 220 148 212 199 180 173 148 116 132 154 168 172 172 171 169 165 160 159
190 187 179 169 164 157 153 150 151 151 162 183 163 177 155 158 188 203 194 192 192 187 215 232 188 198 177 155 155 168 177 188 195 196 197 199 200 195
194 189 184 178 146 165 169 163 159 152 127 106 87 104 105 145 185 198 192 208 208 192 200 230 212 218 219 201 174 182 193 201 208 211 214 219 223 216
184 180 173 179 156 174 184 174 170 167 158 152 150 161 168 172 191 218 218 228 229 213 178 224 224 226 228 207 198 195 203 206 208 211 213 217 226 237
192 182 168 155 163 177 193 180 166 170 173 176 175 176 177 175 188 202 234 253 252 251 181 218 244 239 254 250 227 226 226 219 213 214 214 214 219 240
206 182 148 150 160 172 181 161 161 190 190 189 192 188 186 186 187 198 209 237 272 277 265 246 259 260 260 261 257 234 238 240 239 237 230 209 218 227
194 123 133 153 161 169 172 177 189 197 200 202 203 197 191 185 187 191 194 203 219 236 232 234 251 257 265 267 264 259 253 247 243 251 253 245 241 235
180 151 152 165 179 165 174 189 203 205 211 211 209 197 186 185 196 198 200 203 211 205 203 223 239 251 259 269 267 262 266 265 256 252 257 257 255 249
169 175 181 179 182 186 190 191 198 200 208 217 218 204 196 195 199 205 218 223 228 224 206 202 209 225 251 267 261 261 262 265 263 257 259 263 258 251
181 197 198 198 197 198 197 194 197 206 209 213 216 212 207 205 205 210 216 230 238 238 233 220 218 227 239 237 245 258 263 267 266 251 258 266 268 262
197 209 210 208 209 209 207 205 205 204 208 213 214 213 215 214 212 216 218 223 233 236 236 236 233 240 253 253 229 225 256 268 267 263 262 266 272 277
215 215 214 213 213 212 212 210 208 205 209 214 214 214 218 218 215 216 218 224 229 231 232 235 242 252 264 275 276 250 220 254 269 276 281 279 276 252
216 217 218 218 216 213 212 213 212 212 214 217 216 216 218 218 220 221 218 209 235 236 236 236 237 240 254 260 265 260 234 210 243 274 286 288 286 278
219 220 219 217 214 212 208 207 209 212 212 217 217 218 219 221 222 226 226 219 224 236 244 242 220 231 244 252 261 266 260 232 219 227 246 260 280 288
222 221 221 217 213 210 211 211 212 214 213 215 217 219 219 219 224 225 224 227 229 234 242 245 238 234 245 253 262 268 272 266 259 250 239 222 227 238
Height
1544 1545 1545 1545 1545 1546 1546 1547 1548 1548 1548 1548 1548 1548 1548 1547 1547 1546 1546 1545 1545 1544 1543 1543 1542 1541 1541 1540 1540 1540 1540 1540 1541 1541 1542 1542 1541 1542
1542 1542 1543 1543 1544 1544 1544 1545 1545 1546 1546 1546 1546 1547 1546 1547 1546 1546 1545 1545 1544 1544 1543 1542 1541 1541 1540 1540 1540 1540 1540 1540 1540 1540 1540 1540 1540 1540
1541 1541 1541 1541 1542 1542 1543 1543 1543 1544 1544 1545 1545 1545 1545 1545 1545 1545 1545 1545 1544 1543 1543 1542 1541 1541 1540 1539 1539 1539 1539 1539 1539 1539 1539 1539 1538 1538
1540 1540 1540 1540 1540 1541 1541 1542 1542 1542 1543 1543 1544 1544 1544 1544 1544 1545 1545 1545 1544 1543 1542 1542 1541 1540 1540 1539 1539 1539 1539 1538 1538 1538 1538 1538 1537 1537
1539 1539 1539 1539 1539 1539 1539 1540 1540 1541 1541 1542 1542 1543 1543 1544 1544 1544 1544 1544 1544 1543 1542 1541 1541 1540 1540 1539 1539 1538 1538 1538 1537 1537 1537 1537 1536 1536
1537 1537 1537 1538 1538 1538 1538 1538 1539 1539 1540 1541 1542 1542 1543 1543 1543 1544 1544 1544 1544 1543 1542 1541 1541 1540 1540 1539 1539 1538 1538 1537 1537 1536 1536 1536 1535 1535
1536 1536 1536 1536 1536 1536 1537 1537 1538 1539 1539 1540 1540 1541 1542 1542 1543 1543 1543 1543 1543 1543 1542 1542 1541 1540 1540 1539 1538 1537 1537 1536 1536 1535 1535 1535 1534 1534
1534 1535 1535 1534 1535 1535 1535 1535 1536 1537 1538 1539 1539 1540 1540 1541 1541 1542 1542 1542 1542 1542 1542 1542 1541 1540 1540 1539 1537 1537 1536 1536 1535 1535 1534 1534 1533 1533
1533 1533 1534 1533 1533 1534 1534 1534 1535 1535 1537 1538 1538 1538 1539 1539 1539 1540 1540 1541 1541 1540 1540 1540 1540 1539 1539 1538 1537 1536 1536 1535 1534 1534 1533 1532 1532 1532
1530 1531 1531 1532 1532 1532 1533 1533 1534 1534 1535 1536 1537 1537 1537 1537 1537 1538 1539 1539 1539 1539 1539 1540 1539 1539 1538 1537 1536 1535 1535 1534 1533 1532 1532 1531 1531 1530
1528 1529 1529 1530 1530 1531 1532 1532 1532 1533 1533 1534 1534 1535 1535 1535 1536 1537 1537 1538 1538 1538 1537 1538 1538 1537 1537 1536 1535 1534 1533 1532 1532 1531 1531 1530 1529 1529
1525 1525 1526 1527 1528 1529 1530 1530 1531 1532 1532 1532 1533 1533 1533 1534 1534 1535 1536 1536 1536 1537 1536 1536 1536 1536 1535 1535 1534 1533 1532 1531 1530 1529 1529 1528 1528 1527
1523 1523 1524 1524 1526 1527 1528 1529 1529 1530 1531 1531 1532 1532 1532 1532 1532 1532 1533 1534 1534 1534 1534 1533 1534 1533 1533 1533 1532 1531 1530 1530 1529 1528 1527 1526 1526 1525
1520 1521 1521 1522 1523 1524 1525 1526 1527 1528 1529 1530 1530 1531 1530 1530 1530 1530 1530 1530 1530 1531 1531 1531 1531 1531 1531 1530 1530 1529 1528 1528 1527 1526 1525 1524 1523 1523
1516 1517 1518 1519 1521 1522 1522 1523 1524 1526 1527 1527 1528 1528 1528 1528 1528 1528 1528 1528 1528 1528 1528 1528 1529 1529 1529 1528 1527 1527 1526 1525 1525 1524 1523 1522 1522 1521
1513 1514 1515 1516 1517 1519 1520 1521 1522 1523 1523 1524 1525 1526 1526 1526 1526 1527 1527 1527 1526 1526 1525 1525 1525 1526 1526 1525 1525 1524 1523 1523 1522 1521 1520 1519 1519 1518
1509 1511 1512 1513 1514 1516 1517 1517 1518 1519 1520 1522 1523 1523 1523 1523 1524 1524 1524 1524 1524 1524 1523 1523 1523 1523 1522 1523 1522 1521 1521 1520 1519 1518 1517 1517 1516 1515
1506 1507 1508 1510 1511 1512 1513 1514 1515 1516 1517 1518 1519 1520 1520 1520 1521 1521 1521 1521 1521 1521 1521 1521 1521 1520 1520 1519 1519 1518 1518 1517 1517 1515 1514 1513 1512 1512
1502 1503 1504 1506 1507 1509 1510 1511 1512 1513 1514 1515 1515 1516 1517 1517 1517 1517 1517 1518 1518 1518 1518 1518 1518 1517 1517 1516 1515 1515 1514 1514 1513 1512 1511 1510 1509 1508
1498 1499 1500 1502 1503 1505 1506 1507 1508 1509 1510 1511 1511 1512 1512 1513 1513 1514 1514 1514 1515 1515 1514 1514 1514 1514 1513 1513 1512 1511 1510 1510 1510 1509 1508 1507 1505 1504
1494 1495 1497 1498 1499 1500 1501 1503 1504 1505 1505 1506 1507 1507 1508 1508 1509 1510 1510 1510 1511 1511 1511 1511 1510 1510 1510 1510 1509 1508 1507 1506 1505 1505 1504 1503 1501 1500
1490 1491 1492 1493 1495 1495 1496 1497 1499 1500 1500 1501 1502 1503 1503 1504 1505 1506 1506 1507 1507 1507 1507 1508 1507 1507 1507 1506 1505 1504 1503 1502 1501 1500 1499 1499 1498 1496
1486 1487 1488 1489 1489 1490 1491 1492 1493 1494 1495 1496 1497 1498 1499 1500 1500 1501 1502 1503 1503 1503 1504 1504 1504 1503 1503 1502 1502 1501 1500 1499 1497 1496 1495 1493 1493 1492